Location: *
(46.3500°N, 10.9000°E)
Time: 22:47:03
(UTC+00:00)

A-11 Canister half - Pass Details

Date: 23 April 2021
Orbit: 1526 x 1682 km, 47.3° (Epoch: 13 May)

Event Time Altitude Azimuth Distance (km) Brightness Sun altitude
Rises 14:15:15 0° 238° (WSW) 4,843 12.5 39.4°
Reaches altitude 10° 14:18:21 10° 237° (WSW) 3,877 12.4 38.9°
Maximum altitude 14:28:16 73° 155° (SSE) 1,734 9.9 37.3°
Drops below altitude 10° 14:38:23 10° 74° (ENE) 3,950 10.8 35.7°
Sets 14:41:34 0° 72° (ENE) 4,938 11.2 35.2°
